Location: Freemans Gardens
(41.6414°N, 83.6077°W)
Time: 21:16:23
(UTC+00:00)

Cosmos 1745 Rocket - Pass Details

Date: 29 October 2020
Orbit: 953 x 997 km, 83.0° (Epoch: 25 November)

Event Time Altitude Azimuth Distance (km) Brightness Sun altitude
Rises 23:22:17 0° 358° (N) 3,696 6.9 -9.9°
Reaches altitude 10° 23:24:58 10° 6° (N) 2,750 6.2 -10.4°
Maximum altitude 23:30:56 43° 76° (ENE) 1,366 4.3 -11.5°
Drops below altitude 10° 23:36:54 10° 147° (SSE) 2,754 6.1 -12.6°
Sets 23:39:34 0° 154° (SSE) 3,701 6.8 -13.1°
